Christmas Island, Christmas Island

11:05 AM CXT on December 03, 2016 (GMT +0700)
Christmas Island

Weather History for YPXM - October, 2011

Change the Weather History Date:

Thursday, October 13, 2011

  Actual Average Record
Temperature  
Mean Temperature 76 °F -  
Max Temperature 80 °F 77 °F 82 °F (2012)
Min Temperature 73 °F 70 °F 32 °F (2006)
Cooling Degree Days 12    
Growing Degree Days 26 (Base 50)    
Moisture  
Dew Point 69 °F    
Average Humidity 80    
Maximum Humidity 94    
Minimum Humidity 64    
Precipitation  
Precipitation 0.00 in - - ()
Sea Level Pressure  
Sea Level Pressure 29.95 in    
Wind  
Wind Speed 13 mph ()    
Max Wind Speed 20 mph    
Max Gust Speed -    
Averages and records for this station are not official NWS values.
T = Trace of Precipitation, MM = Missing Value Source: Averaged Metar Reports

Daily Weather History Graph

Daily Weather History Graph

Search for Another Location

Airport or City:

Trip Planner

Search our weather history database for the weather conditions in past years. The results will help you decide how hot, cold, wet, or windy it might be!

Date:

Astronomy

Oct. 13, 2011 Rise Set
Actual Time 5:34 AM CXT 5:52 PM CXT
Civil Twilight 5:13 AM CXT 6:13 PM CXT
Nautical Twilight 4:48 AM CXT 6:38 PM CXT
Astronomical Twilight 4:23 AM CXT 7:03 PM CXT
Moon 6:49 PM CXT (10/13) 6:02 AM CXT (10/13)
Length of Visible Light 13h 00m
Length of Day
12h 18m
Full, 99% of the Moon is Illuminated
Oct 13
Full
Oct 20
Last Quarter
Oct 27
New
Nov 2
First Quarter
Nov 11
Full

Hourly Weather History & Observations

Time (CXT) Temp. Dew Point Humidity Pressure Visibility Wind Dir Wind Speed Gust Speed Precip Events Conditions
12:00 AM 74 °F 71 °F 88% 29.96 in - SE 11.5 mph - -   Overcast
12:00 AM 73.4 °F 71.6 °F 94% 29.98 in - SE 11.5 mph - N/A   Overcast
1:00 AM 74 °F 71 °F 88% 29.94 in - SE 13.8 mph - -  
1:00 AM 73.4 °F 71.6 °F 94% 29.98 in - SE 13.8 mph - N/A   Overcast
2:00 AM 73.4 °F 71.6 °F 94% 29.95 in - SE 13.8 mph - N/A   Overcast
2:03 AM 73.4 °F 69.8 °F 88% 29.95 in - SE 13.8 mph - N/A   Overcast
2:26 AM 73.4 °F 71.6 °F 94% 29.95 in - SE 11.5 mph - N/A   Overcast
3:00 AM 74 °F 70 °F 83% 29.92 in - ESE 12.7 mph - -   Overcast
3:00 AM 73.4 °F 69.8 °F 88% 29.95 in - ESE 12.7 mph - N/A   Overcast
4:00 AM 74 °F 71 °F 86% 29.92 in - SE 12.7 mph - -  
4:00 AM 73.4 °F 69.8 °F 88% 29.95 in - SE 12.7 mph - N/A   Overcast
4:53 AM 73.4 °F 69.8 °F 88% 29.95 in - ESE 13.8 mph - N/A   Mostly Cloudy
5:00 AM 73.4 °F 69.8 °F 88% 29.95 in - SE 12.7 mph - N/A   Mostly Cloudy
6:00 AM 74 °F 71 °F 86% 29.94 in - ESE 12.7 mph - -  
6:00 AM 73.4 °F 69.8 °F 88% 29.98 in - ESE 12.7 mph - N/A   Mostly Cloudy
7:00 AM 75 °F 70 °F 80% 29.96 in - ESE 13.8 mph - -  
7:00 AM 75.2 °F 69.8 °F 83% 29.98 in - ESE 13.8 mph - N/A   Overcast
8:00 AM 77.0 °F 71.6 °F 83% 30.01 in - ESE 15.0 mph - N/A   Mostly Cloudy
9:00 AM 77 °F 71 °F 76% 29.98 in - ESE 15.0 mph - -   Overcast
9:00 AM 77.0 °F 71.6 °F 83% 30.01 in - ESE 15.0 mph - N/A   Overcast
10:00 AM 78 °F 69 °F 66% 29.98 in - ESE 17.3 mph - -  
10:00 AM 78.8 °F 68.0 °F 69% 30.01 in - ESE 17.3 mph - N/A   Mostly Cloudy
10:12 AM 78.8 °F 69.8 °F 74% 30.01 in - ESE 17.3 mph - N/A   Scattered Clouds
10:24 AM 77.0 °F 69.8 °F 78% 30.01 in - ESE 17.3 mph - N/A   Mostly Cloudy
11:00 AM 78.8 °F 69.8 °F 74% 29.98 in - ESE 19.6 mph - N/A   Scattered Clouds
11:01 AM 78.8 °F 69.8 °F 74% 29.98 in - ESE 18.4 mph - N/A   Scattered Clouds
11:04 AM 78.8 °F 69.8 °F 74% 29.98 in - ESE 18.4 mph - N/A   Mostly Cloudy
11:46 AM 78.8 °F 68.0 °F 69% 29.98 in - ESE 17.3 mph - N/A   Mostly Cloudy
12:00 PM 79 °F 69 °F 64% 29.93 in - ESE 17.3 mph - -  
12:00 PM 78.8 °F 69.8 °F 74% 29.95 in - ESE 17.3 mph - N/A   Mostly Cloudy
12:48 PM 78.8 °F 69.8 °F 74% 29.95 in - SE 18.4 mph - N/A   Mostly Cloudy
1:00 PM 78 °F 69 °F 67% 29.90 in - SE 19.6 mph - -  
1:00 PM 77.0 °F 69.8 °F 78% 29.95 in - SE 19.6 mph - N/A   Mostly Cloudy
2:00 PM 78.8 °F 69.8 °F 74% 29.92 in - SE 18.4 mph - N/A   Mostly Cloudy
3:00 PM 77 °F 68 °F 67% 29.88 in - ESE 17.3 mph - -   Overcast
3:00 PM 77.0 °F 68.0 °F 74% 29.92 in - ESE 17.3 mph - N/A   Mostly Cloudy
3:11 PM 77.0 °F 68.0 °F 74% 29.92 in - ESE 17.3 mph - N/A   Mostly Cloudy
4:00 PM 76 °F 67 °F 68% 29.87 in - ESE 16.1 mph - -  
4:00 PM 77.0 °F 68.0 °F 74% 29.92 in - ESE 16.1 mph - N/A   Mostly Cloudy
5:00 PM 75.2 °F 68.0 °F 78% 29.92 in - SE 15.0 mph - N/A   Mostly Cloudy
5:12 PM 75.2 °F 69.8 °F 83% 29.92 in - ESE 13.8 mph - N/A   Overcast
5:31 PM 75.2 °F 68.0 °F 78% 29.92 in - SE 15.0 mph - N/A   Mostly Cloudy
6:00 PM 74 °F 67 °F 74% 29.89 in - SE 15.0 mph - -  
6:00 PM 73.4 °F 68.0 °F 83% 29.92 in - SE 15.0 mph - N/A   Scattered Clouds
7:00 PM 74 °F 68 °F 76% 29.91 in - SE 15.0 mph - -  
7:00 PM 73.4 °F 68.0 °F 83% 29.95 in - SE 15.0 mph - N/A   Overcast
8:00 PM 73.4 °F 68.0 °F 83% 29.95 in - ESE 13.8 mph - N/A   Overcast
9:00 PM 74 °F 68 °F 76% 29.94 in - SE 17.3 mph - -   Overcast
9:00 PM 73.4 °F 68.0 °F 83% 29.98 in - SE 17.3 mph - N/A   Overcast
10:00 PM 74 °F 67 °F 72% 29.95 in - SE 15.0 mph - -  
10:00 PM 73.4 °F 66.2 °F 78% 29.98 in - SE 15.0 mph - N/A   Mostly Cloudy
11:00 PM 73.4 °F 68.0 °F 83% 29.98 in - ESE 15.0 mph - N/A   Overcast
11:18 PM 73.4 °F 68.0 °F 83% 29.98 in - SE 16.1 mph - N/A   Overcast